Погода в Асекеево

Россия / Оренбургская область     53°34′29″N   52°48′19″E
темп.,
°C
ветер,
м/с
пор.,
м/с
влажн.,
%
обл.,
%
осадки,
мм/ч
давл.,
гПа
погр.,
м
8 мая, сб
сб823:00+13ю2264100 0.0 101715
02:00+13юз3366100 0.0 101749
05:00+13зсз1266100 0.1 101716
08:00+13вюв236990 0.2 101787
11:00+17юв2252100 0.3 1017634
14:00+20ююз2439100 0.0 10162477
17:00+18в124815 0.3 1016464
20:00+17всв22556 0.0 101532
9 мая, вс
вс923:00+14вюв22595 0.0 101611
02:00+13вюв356398 0.0 101673
05:00+13юв3463100 0.0 101671
08:00+15юв376413 0.0 1016207
11:00+20ююв45446 0.0 1016884
14:00+22ююв44346 0.0 10152459
17:00+23ююв44338 0.0 10152446
20:00+20вюв364999 0.0 1015104
10 мая, пн
пн1023:00+16вюв344984 0.0 101656
02:00+14юв335780 0.0 101646
05:00+13юв345984 0.0 101759
08:00+15юв2863100 0.0 1019237
11:00+21юв564353 0.0 1019822
14:00+24юв443598 0.0 10192245
17:00+24юв3334100 0.0 10202408
20:00+21в3350100 0.0 102035
11 мая, вт
вт1123:00+17в2250100 0.0 102223
02:00+15в1158100 0.0 102311
05:00+15св1161100 0.0 102411
08:00+16св1263100 0.0 102543
11:00+20вюв1150100 0.0 1027422
14:00+23св334367 0.0 10271179
17:00+23св44418 0.0 10261882
20:00+21ссв365968 0.0 1027139
12 мая, ср
ср1223:00+18св476898 0.0 1027151
02:00+17всв5107276 0.0 1028322
05:00+13всв38815 0.0 1029175
08:00+15всв476211 0.0 1029251
11:00+20всв45477 0.0 1029682
14:00+23св443837 0.0 10281334
17:00+24всв44315 0.0 10271717
20:00+20всв36507 0.0 1027116